Location: Frydek-Mistek
(49.6830°N, 18.3330°E)
Time: 18:02:43
(UTC+02:00)

Courier 1B Rocket - All Passes

Search period start: 25 June 2016 00:00
Search period end: 05 July 2016 00:00
Orbit: 921 x 1202 km, 28.2° (Epoch: 24 June)

Date Brightness Start Highest point End Pass type
(mag) Time Alt. Az. Time Alt. Az. Time Alt. Az.
25 Jun - 19:37:31 10° S 19:39:48 12° S 19:42:07 10° SSE daylight
25 Jun - 21:29:19 10° SSW 21:31:51 12° S 21:34:28 10° SSE daylight
26 Jun - 20:28:30 10° SSW 20:31:12 12° S 20:33:58 10° SSE daylight
27 Jun - 19:28:11 10° SSW 19:30:34 12° S 19:33:01 10° SSE daylight
28 Jun - 18:28:33 10° S 18:29:59 11° S 18:31:26 10° SSE daylight
28 Jun - 20:20:12 10° SSW 20:21:59 11° S 20:23:47 10° S daylight
29 Jun - 19:19:25 10° SSW 19:21:22 11° S 19:23:22 10° SSE daylight
30 Jun - 18:19:13 10° S 18:20:48 11° S 18:22:23 10° SSE daylight
02 Jul - 18:10:50 10° S 18:11:37 10° S 18:12:26 10° S daylight
